Change the Weather History Date:

Saturday, October 6, 2012

  Actual Average Record
Temperature  
Mean Temperature 35 °F 51 °F  
Max Temperature 46 °F 65 °F 92 °F (1993)
Min Temperature 23 °F 38 °F 22 °F (2000)
Degree Days  
Heating Degree Days 30 14  
Month to date heating degree days 113 77  
Since 1 July heating degree days 265 297  
Cooling Degree Days 0 0  
Month to date cooling degree days 0 0  
Year to date cooling degree days 866 641  
Moisture  
Dew Point 23 °F    
Average Humidity 63    
Maximum Humidity 92    
Minimum Humidity 33    
Precipitation  
Precipitation T in 0.06 in 1.39 in (1962)
Month to date precipitation 0.13 0.34  
Year to date precipitation 12.54 15.79  
Snow  
Snow 0.00 in - - ()
Month to date snowfall T  
Since 1 July snowfall T  
Snow Depth 0.00 in    
Sea Level Pressure  
Sea Level Pressure 30.37 in    
Wind  
Wind Speed 6 mph (WNW)    
Max Wind Speed 14 mph    
Max Gust Speed 17 mph    
Visibility 10 miles    
Events Snow    
T = Trace of Precipitation, MM = Missing Value Source: NWS Daily Summary

Daily Weather History Graph

Daily Weather History Graph

Search for Another Location

Airport or City:

Trip Planner

Search our weather history database for the weather conditions in past years. The results will help you decide how hot, cold, wet, or windy it might be!

Date:

Astronomy

Oct. 06, 2012 Rise Set
Actual Time 7:46 AM CDT 7:11 PM CDT
Civil Twilight 7:17 AM CDT 7:41 PM CDT
Nautical Twilight 6:42 AM CDT 8:15 PM CDT
Astronomical Twilight 6:08 AM CDT 8:49 PM CDT
Moon 11:15 PM CDT (10/6) 1:56 PM CDT (10/6)
Length of Visible Light 12h 23m
Length of Day
11h 24m
Waning Gibbous, 65% of the Moon is Illuminated
Oct 6
Waning Gibbous
Oct 8
Last Quarter
Oct 15
New
Oct 21
First Quarter
Oct 29
Full

Hourly Weather History & Observations

Time (CDT) Temp. Windchill Dew Point Humidity Pressure Visibility Wind Dir Wind Speed Gust Speed Precip Events Conditions
12:52 AM 27.0 °F 19.5 °F 21.9 °F 81% 30.40 in 10.0 mi North 6.9 mph - N/A   Clear
1:52 AM 25.0 °F 16.3 °F 23.0 °F 92% 30.41 in 10.0 mi North 8.1 mph - N/A   Clear
2:52 AM 25.0 °F 17.1 °F 23.0 °F 92% 30.42 in 10.0 mi NW 6.9 mph - N/A   Clear
3:52 AM 25.0 °F 14.8 °F 23.0 °F 92% 30.42 in 10.0 mi NW 10.4 mph - N/A   Partly Cloudy
4:36 AM 24.8 °F 14.6 °F 24.8 °F 100% 30.35 in 10.0 mi NW 10.4 mph - N/A   Scattered Clouds
4:52 AM 26.1 °F 15.6 °F 24.1 °F 92% 30.41 in 10.0 mi NW 11.5 mph - N/A   Partly Cloudy
5:52 AM 26.1 °F 20.5 °F 24.1 °F 92% 30.42 in 10.0 mi NW 4.6 mph - N/A   Clear
6:00 AM 26.6 °F 21.2 °F 24.8 °F 93% 30.36 in 10.0 mi NW 4.6 mph - N/A   Scattered Clouds
6:22 AM 23.0 °F 17.0 °F 21.2 °F 93% 30.37 in 10.0 mi West 4.6 mph - N/A   Mostly Cloudy
6:52 AM 24.1 °F 19.7 °F 23.0 °F 96% 30.44 in 10.0 mi WNW 3.5 mph - N/A   Mostly Cloudy
7:19 AM 24.8 °F 19.1 °F 23.0 °F 93% 30.38 in 10.0 mi WNW 4.6 mph - N/A   Scattered Clouds
7:52 AM 28.0 °F 20.0 °F 26.1 °F 92% 30.45 in 6.0 mi NW 8.1 mph - 0.00 in Snow Light Snow
8:52 AM 28.0 °F 19.3 °F 26.1 °F 92% 30.45 in 10.0 mi WNW 9.2 mph - 0.00 in   Overcast
9:52 AM 30.9 °F 22.2 °F 28.9 °F 92% 30.46 in 10.0 mi NW 10.4 mph - N/A   Mostly Cloudy
10:52 AM 35.1 °F 26.4 °F 28.9 °F 78% 30.46 in 10.0 mi WNW 12.7 mph - N/A   Scattered Clouds
11:52 AM 39.0 °F 32.8 °F 26.1 °F 60% 30.44 in 10.0 mi NW 9.2 mph - N/A   Partly Cloudy
12:52 PM 41.0 °F 35.8 °F 23.0 °F 49% 30.42 in 10.0 mi NNW 8.1 mph - N/A   Scattered Clouds
1:52 PM 44.1 °F 40.1 °F 21.0 °F 40% 30.39 in 10.0 mi WNW 6.9 mph - N/A   Clear
2:52 PM 43.0 °F 41.3 °F 19.9 °F 40% 30.36 in 10.0 mi SW 3.5 mph - N/A   Partly Cloudy
3:52 PM 45.0 °F 43.5 °F 18.0 °F 34% 30.34 in 10.0 mi West 3.5 mph - N/A   Clear
4:52 PM 45.0 °F - 19.0 °F 36% 30.32 in 10.0 mi Calm Calm - N/A   Clear
5:52 PM 44.1 °F 41.5 °F 19.9 °F 38% 30.31 in 10.0 mi WSW 4.6 mph - N/A   Clear
6:52 PM 43.0 °F 41.3 °F 19.9 °F 40% 30.29 in 10.0 mi West 3.5 mph - N/A   Partly Cloudy
7:52 PM 34.0 °F - 19.0 °F 54% 30.29 in 10.0 mi Calm Calm - N/A   Clear
8:52 PM 28.9 °F - 21.0 °F 72% 30.29 in 10.0 mi Calm Calm - N/A   Clear
9:52 PM 32.0 °F 28.7 °F 23.0 °F 69% 30.26 in 10.0 mi SE 3.5 mph - N/A   Clear
10:52 PM 32.0 °F 28.7 °F 21.9 °F 66% 30.25 in 10.0 mi SSE 3.5 mph - N/A   Clear
11:52 PM 30.9 °F 26.2 °F 21.9 °F 69% 30.22 in 10.0 mi SE 4.6 mph - N/A   Clear